WeatherOLA & Area Weather Station Summaries and History

Weather history for Indianola, Kingston, Poulsbo, Bainbridge Island, Silverdale other area weather stations. Select a station for detailed historical weather information of any date and time in five minute intervals. Great for looking up the timing of interesting weather events that are closest to you.

Station Historical Data
Daily Summary for September 13, 2017 Units:  English    Metric   Both
« Previous Day
Next Day »
Daily Weekly Monthly Yearly Custom
  High: Low: Average:
Temperature: 68.5 °F 53.1 °F 60.3 °F
Dew Point: 55.8 °F 50.5 °F 52.5 °F
Humidity: 92% 57% 77%
Wind Speed: 5.8mph 0mph 0.6mph
Wind Gust: 5.8mph - -
Wind- - SSE
Pressure: 30 in 29.9 in -
Precipitation: 0 in    
Historical Graphs
 
 
Tabular Data for September 13, 2017
Time Temperature Dew Point Pressure Wind Wind Speed Wind Gust Humidity Rainfall Rate (Hourly) solar Conditions
03:36 55.8 °F 52.2 °F 29.9 in Calm     88% 0 in WeatherDisplay:10.37 W/m2 CLR
03:41 55.8 °F 52.3 °F 29.9 in Calm     88% 0 in WeatherDisplay:10.37 W/m2 CLR
03:46 55.8 °F 52.3 °F 29.9 in Calm     88% 0 in WeatherDisplay:10.37 W/m2 CLR
03:51 55.8 °F 52.3 °F 29.9 in Calm     88% 0 in WeatherDisplay:10.37 W/m2 CLR
03:56 55.8 °F 52.3 °F 29.9 in Calm     88% 0 in WeatherDisplay:10.37 W/m2 CLR
04:02 55.9 °F 52.3 °F 29.9 in Calm     88% 0 in WeatherDisplay:10.37 W/m2 CLR
04:07 55.9 °F 52.3 °F 29.9 in Calm     88% 0 in WeatherDisplay:10.37 W/m2 CLR
04:12 55.9 °F 52.3 °F 29.9 in Calm     88% 0 in WeatherDisplay:10.37 W/m2 CLR
04:17 55.9 °F 52.3 °F 29.9 in Calm     88% 0 in WeatherDisplay:10.37 W/m2 CLR
04:22 55.9 °F 52.3 °F 29.9 in Calm     88% 0 in WeatherDisplay:10.37 W/m2 CLR
04:27 55.8 °F 52.3 °F 29.9 in Calm     88% 0 in WeatherDisplay:10.37 W/m2 CLR
04:32 55.8 °F 52.3 °F 29.9 in Calm     88% 0 in WeatherDisplay:10.37 W/m2 CLR
04:37 55.8 °F 52.3 °F 29.9 in Calm     88% 0 in WeatherDisplay:10.37 W/m2 CLR
04:42 55.8 °F 52.2 °F 29.9 in Calm     88% 0 in WeatherDisplay:10.37 W/m2 CLR
04:47 55.8 °F 52.5 °F 29.9 in Calm     89% 0 in WeatherDisplay:10.37 W/m2 CLR
04:52 55.6 °F 52.3 °F 29.9 in Calm     89% 0 in WeatherDisplay:10.37 W/m2 CLR
04:57 55.6 °F 53.2 °F 29.9 in Calm     92% 0 in WeatherDisplay:10.37 W/m2 CLR
05:02 55.6 °F 53.2 °F 29.9 in Calm     92% 0 in WeatherDisplay:10.37 W/m2 CLR
05:07 55.6 °F 53.2 °F 29.9 in Calm     92% 0 in WeatherDisplay:10.37 W/m2 CLR
05:12 55.6 °F 52.3 °F 29.9 in Calm     89% 0 in WeatherDisplay:10.37 W/m2 CLR
05:17 55.6 °F 52.3 °F 29.9 in Calm     89% 0 in WeatherDisplay:10.37 W/m2 CLR
05:22 55.4 °F 52.2 °F 29.9 in Calm     89% 0 in WeatherDisplay:10.37 W/m2 CLR
05:27 55.2 °F 52.2 °F 29.9 in Calm     89% 0 in WeatherDisplay:10.37 W/m2 CLR
05:32 55.2 °F 52.3 °F 29.9 in Calm     90% 0 in WeatherDisplay:10.37 W/m2 CLR
05:37 55.2 °F 52.3 °F 29.9 in Calm     90% 0 in WeatherDisplay:10.37 W/m2 CLR
05:42 55 °F 52.2 °F 29.9 in Calm     90% 0 in WeatherDisplay:10.37 W/m2 CLR
05:47 55 °F 52.2 °F 29.9 in Calm     90% 0 in WeatherDisplay:10.37 W/m2 CLR
05:52 54.9 °F 52 °F 29.9 in Calm     90% 0 in WeatherDisplay:10.37 W/m2 CLR
05:57 54.7 °F 51.8 °F 29.9 in Calm     90% 0 in WeatherDisplay:10.37 W/m2 CLR
06:02 54.7 °F 51.8 °F 29.9 in Calm     90% 0 in WeatherDisplay:10.37 W/m2 CLR
06:07 54.5 °F 51.6 °F 29.9 in Calm     90% 0 in WeatherDisplay:10.37 W/m2 CLR
06:12 54.3 °F 51.4 °F 29.9 in Calm     90% 0 in WeatherDisplay:10.37 W/m2 CLR
06:17 54.1 °F 51.3 °F 29.9 in Calm     90% 0 in WeatherDisplay:10.37 W/m2 CLR
06:22 54.1 °F 51.3 °F 29.9 in Calm     90% 0 in WeatherDisplay:10.37 W/m2 CLR
06:27 54 °F 51.1 °F 30 in Calm     90% 0 in WeatherDisplay:10.37 W/m2 CLR
06:32 54 °F 51.1 °F 30 in Calm     90% 0 in WeatherDisplay:10.37 W/m2 CLR
06:37 53.8 °F 51.3 °F 30 in Calm     91% 0 in WeatherDisplay:10.37 W/m2 CLR
06:42 53.8 °F 51.1 °F 30 in Calm     91% 0 in WeatherDisplay:10.37 W/m2 CLR
06:47 53.8 °F 51.1 °F 30 in Calm     91% 0 in WeatherDisplay:10.37 W/m2 CLR
06:52 53.8 °F 51.1 °F 30 in Calm     91% 0 in WeatherDisplay:10.37 W/m2 CLR
06:57 53.6 °F 51.1 °F 30 in Calm     91% 0 in WeatherDisplay:10.37 W/m2 CLR
07:02 53.4 °F 50.9 °F 30 in Calm     91% 0 in WeatherDisplay:10.37 W/m2 CLR
07:03 53.4 °F 50.9 °F 30 in Calm     91% 0 in WeatherDisplay:10.37 W/m2 CLR
07:08 53.4 °F 50.9 °F 30 in Calm     91% 0 in WeatherDisplay:10.37 W/m2 CLR
07:13 53.4 °F 50.7 °F 30 in Calm     91% 0 in WeatherDisplay:10.37 W/m2 CLR
07:18 53.4 °F 50.7 °F 30 in Calm     91% 0 in WeatherDisplay:10.37 W/m2 CLR
07:23 53.2 °F 50.7 °F 30 in Calm     91% 0 in WeatherDisplay:10.37 W/m2 CLR
07:28 53.2 °F 50.7 °F 30 in Calm     91% 0 in WeatherDisplay:10.37 W/m2 CLR
07:33 53.2 °F 50.5 °F 30 in Calm     91% 0 in WeatherDisplay:10.37 W/m2 CLR
07:38 53.2 °F 50.5 °F 30 in Calm     91% 0 in WeatherDisplay:10.37 W/m2 CLR
07:43 53.2 °F 50.5 °F 30 in Calm     91% 0 in WeatherDisplay:10.37 W/m2 CLR
07:48 53.1 °F 50.5 °F 30 in Calm     91% 0 in WeatherDisplay:10.37 W/m2 CLR
07:53 53.1 °F 50.5 °F 30 in Calm     91% 0 in WeatherDisplay:10.37 W/m2 CLR
07:58 53.1 °F 50.5 °F 30 in Calm     91% 0 in WeatherDisplay:10.37 W/m2 CLR
08:03 53.2 °F 50.5 °F 30 in Calm     91% 0 in WeatherDisplay:10.37 W/m2 CLR
08:08 53.2 °F 50.7 °F 30 in Calm     91% 0 in WeatherDisplay:10.37 W/m2 CLR
08:13 53.4 °F 50.7 °F 30 in Calm     91% 0 in WeatherDisplay:10.37 W/m2 CLR
08:18 53.6 °F 51.1 °F 30 in Calm     91% 0 in WeatherDisplay:10.37 W/m2 CLR
08:23 53.8 °F 51.3 °F 30 in Calm     91% 0 in WeatherDisplay:10.37 W/m2 CLR
08:28 54 °F 51.3 °F 30 in Calm     91% 0 in WeatherDisplay:10.37 W/m2 CLR
08:34 54.1 °F 51.6 °F 30 in Calm     91% 0 in WeatherDisplay:10.37 W/m2 CLR
08:39 54.3 °F 51.4 °F 30 in Calm     90% 0 in WeatherDisplay:10.37 W/m2 CLR
08:44 54.7 °F 51.6 °F 30 in Calm     90% 0 in WeatherDisplay:10.37 W/m2 CLR
08:49 54.9 °F 51.6 °F 30 in Calm     89% 0 in WeatherDisplay:10.37 W/m2 CLR
08:50 54.9 °F 51.6 °F 30 in Calm     89% 0 in WeatherDisplay:10.37 W/m2 CLR
08:55 55 °F 52 °F 30 in Calm     89% 0 in WeatherDisplay:10.37 W/m2 CLR
09:00 55.2 °F 51.8 °F 30 in Calm     88% 0 in WeatherDisplay:10.37 W/m2 CLR
09:05 55.6 °F 52.3 °F 30 in Calm     89% 0 in WeatherDisplay:10.37 W/m2 CLR
09:10 55.8 °F 52.3 °F 30 in Calm     88% 0 in WeatherDisplay:10.37 W/m2 CLR
09:15 55.9 °F 52.3 °F 30 in Calm     88% 0 in WeatherDisplay:10.37 W/m2 CLR
09:20 55.9 °F 52.5 °F 30 in Calm     88% 0 in WeatherDisplay:10.37 W/m2 CLR
09:25 56.1 °F 52.7 °F 30 in Calm     88% 0 in WeatherDisplay:10.37 W/m2 CLR
09:30 56.3 °F 52.5 °F 30 in Calm     87% 0 in WeatherDisplay:10.37 W/m2 CLR
09:35 56.5 °F 52.3 °F 30 in Calm     86% 0 in WeatherDisplay:10.37 W/m2 CLR
09:40 56.7 °F 52.5 °F 30 in Calm     86% 0 in WeatherDisplay:10.37 W/m2 CLR
09:45 56.8 °F 52.3 °F 30 in Calm     85% 0 in WeatherDisplay:10.37 W/m2 CLR
09:50 57.2 °F 52.7 °F 30 in Calm     85% 0 in WeatherDisplay:10.37 W/m2 CLR
09:55 57.6 °F 53.1 °F 30 in Calm     85% 0 in WeatherDisplay:10.37 W/m2 CLR
10:00 57.7 °F 52.9 °F 30 in Calm     84% 0 in WeatherDisplay:10.37 W/m2 CLR
10:05 58.1 °F 53.2 °F 30 in SE 1 mph   84% 0 in WeatherDisplay:10.37 W/m2 CLR
10:10 58.5 °F 53.1 °F 30 in Calm   0.1 mph 82% 0 in WeatherDisplay:10.37 W/m2 CLR
10:15 58.8 °F 53.4 °F 30 in South 1 mph   82% 0 in WeatherDisplay:10.37 W/m2 CLR
10:20 59.4 °F 53.4 °F 30 in Calm     81% 0 in WeatherDisplay:10.37 W/m2 CLR
10:25 59.5 °F 53.8 °F 30 in Calm     81% 0 in WeatherDisplay:10.37 W/m2 CLR
10:30 59.9 °F 54.1 °F 30 in Calm     81% 0 in WeatherDisplay:10.37 W/m2 CLR
10:36 59.9 °F 54.1 °F 30 in East 1.2 mph 1.2 mph 81% 0 in WeatherDisplay:10.37 W/m2 CLR
10:41 59.5 °F 53.4 °F 30 in Calm     80% 0 in WeatherDisplay:10.37 W/m2 CLR
10:46 59.9 °F 53.4 °F 30 in East 1.2 mph   79% 0 in WeatherDisplay:10.37 W/m2 CLR
10:51 59.9 °F 53.4 °F 30 in East 1.2 mph 1.2 mph 79% 0 in WeatherDisplay:10.37 W/m2 CLR
10:56 60.3 °F 53.4 °F 30 in SE 1.2 mph 1.2 mph 78% 0 in WeatherDisplay:10.37 W/m2 CLR
11:01 60.6 °F 53.1 °F 30 in SE 1.2 mph   76% 0 in WeatherDisplay:10.37 W/m2 CLR
11:06 60.6 °F 53.1 °F 30 in SE 1.2 mph   76% 0 in WeatherDisplay:10.37 W/m2 CLR
11:11 60.8 °F 52.9 °F 30 in SE 1.2 mph   75% 0 in WeatherDisplay:10.37 W/m2 CLR
11:16 61 °F 53.1 °F 30 in Calm     75% 0 in WeatherDisplay:10.37 W/m2 CLR
11:21 61.2 °F 53.1 °F 30 in Calm     75% 0 in WeatherDisplay:10.37 W/m2 CLR
11:26 61.3 °F 53.1 °F 30 in ESE 1.2 mph 1.2 mph 74% 0 in WeatherDisplay:10.37 W/m2 CLR
11:31 61.7 °F 53.2 °F 30 in Calm     74% 0 in WeatherDisplay:10.37 W/m2 CLR
11:36 61.9 °F 54 °F 30 in Calm     75% 0 in WeatherDisplay:10.37 W/m2 CLR
11:41 62.4 °F 54.1 °F 30 in East 2.3 mph 2.3 mph 74% 0 in WeatherDisplay:10.37 W/m2 CLR
11:46 63 °F 53.8 °F 30 in SSE 1.2 mph 1.2 mph 72% 0 in WeatherDisplay:10.37 W/m2 CLR
11:51 63.5 °F 54 °F 30 in East 3.5 mph 3.5 mph 71% 0 in WeatherDisplay:10.37 W/m2 CLR
11:56 63.9 °F 54 °F 30 in East 1.2 mph 1.2 mph 70% 0 in WeatherDisplay:10.37 W/m2 CLR
12:01 64.2 °F 54.1 °F 30 in WNW 2.3 mph 2.3 mph 70% 0 in WeatherDisplay:10.37 W/m2 CLR
12:06 64.2 °F 54.3 °F 30 in ESE 3.5 mph 3.5 mph 70% 0 in WeatherDisplay:10.37 W/m2 CLR
12:11 64.8 °F 54.3 °F 30 in ESE 1.2 mph 1.2 mph 69% 0 in WeatherDisplay:10.37 W/m2 CLR
12:16 65.1 °F 54.7 °F 30 in East 1.2 mph 1.2 mph 69% 0 in WeatherDisplay:10.37 W/m2 CLR
12:21 65.7 °F 54.3 °F 30 in North 1.2 mph 1.2 mph 67% 0 in WeatherDisplay:10.37 W/m2 CLR
12:26 66 °F 54.7 °F 29.9 in Calm     67% 0 in WeatherDisplay:10.37 W/m2 CLR
12:31 66 °F 54.9 °F 29.9 in North 2.3 mph   67% 0 in WeatherDisplay:10.37 W/m2 CLR
12:36 65.8 °F 55 °F 29.9 in NNW 1.2 mph 1.2 mph 68% 0 in WeatherDisplay:10.37 W/m2 CLR
12:41 65.7 °F 55.2 °F 29.9 in SW 2.3 mph 2.3 mph 69% 0 in WeatherDisplay:10.37 W/m2 CLR
12:46 65.8 °F 55.8 °F 29.9 in Calm     70% 0 in WeatherDisplay:10.37 W/m2 CLR
12:51 66.6 °F 54.9 °F 29.9 in ESE 2 mph 2 mph 66% 0 in WeatherDisplay:10.37 W/m2 CLR
12:56 66.9 °F 54.7 °F 29.9 in SSE 2.3 mph 2.3 mph 65% 0 in WeatherDisplay:10.37 W/m2 CLR
13:01 67.3 °F 55.6 °F 29.9 in SSE 1.2 mph 1.2 mph 66% 0 in WeatherDisplay:10.37 W/m2 CLR
13:06 66.7 °F 54.1 °F 29.9 in SSW 2.3 mph 2.3 mph 64% 0 in WeatherDisplay:10.37 W/m2 CLR
13:11 66.6 °F 54.9 °F 29.9 in SSW 2.3 mph 2.3 mph 66% 0 in WeatherDisplay:10.37 W/m2 CLR
13:16 67.1 °F 54.5 °F 29.9 in SW 1.2 mph 1.2 mph 64% 0 in WeatherDisplay:10.37 W/m2 CLR
13:21 67.6 °F 55.4 °F 29.9 in SSW 3.5 mph 3.5 mph 65% 0 in WeatherDisplay:10.37 W/m2 CLR
13:26 67.8 °F 55.2 °F 29.9 in ENE 2.3 mph 2.3 mph 64% 0 in WeatherDisplay:10.37 W/m2 CLR
13:31 67.5 °F 54.3 °F 29.9 in SSW 2.3 mph 2.3 mph 63% 0 in WeatherDisplay:10.37 W/m2 CLR
13:36 67.1 °F 54.5 °F 29.9 in SW 1.2 mph   64% 0 in WeatherDisplay:10.37 W/m2 CLR
13:41 67.5 °F 54.9 °F 29.9 in Calm     64% 0 in WeatherDisplay:10.37 W/m2 CLR
13:46 67.3 °F 53.8 °F 29.9 in East 5.8 mph 5.8 mph 62% 0 in WeatherDisplay:10.37 W/m2 CLR
13:51 67.3 °F 54.3 °F 29.9 in ESE 2.3 mph 2.3 mph 63% 0 in WeatherDisplay:10.37 W/m2 CLR
13:56 67.3 °F 54.3 °F 29.9 in South 2.3 mph 2.3 mph 63% 0 in WeatherDisplay:10.37 W/m2 CLR
14:01 67.5 °F 54.5 °F 29.9 in ESE 2.3 mph 2.3 mph 63% 0 in WeatherDisplay:10.37 W/m2 CLR
14:06 67.5 °F 54 °F 29.9 in WSW 3.5 mph 3.5 mph 62% 0 in WeatherDisplay:10.37 W/m2 CLR
14:11 67.6 °F 53.8 °F 29.9 in NW 3.5 mph 3.5 mph 61% 0 in WeatherDisplay:10.37 W/m2 CLR
14:16 67.6 °F 53.2 °F 29.9 in West 2.3 mph 2.3 mph 60% 0 in WeatherDisplay:10.37 W/m2 CLR
14:21 67.3 °F 53.2 °F 29.9 in ESE 3.5 mph 3.5 mph 61% 0 in WeatherDisplay:10.37 W/m2 CLR
14:26 67.5 °F 54 °F 29.9 in East 3.5 mph 3.5 mph 62% 0 in WeatherDisplay:10.37 W/m2 CLR
14:31 67.6 °F 53.2 °F 29.9 in Calm     60% 0 in WeatherDisplay:10.37 W/m2 CLR
14:37 68.4 °F 54 °F 29.9 in North 1.2 mph 1.2 mph 60% 0 in WeatherDisplay:10.37 W/m2 CLR
14:42 68.5 °F 53.6 °F 29.9 in ESE 3.5 mph 3.5 mph 59% 0 in WeatherDisplay:10.37 W/m2 CLR
14:47 68.4 °F 53.4 °F 29.9 in East 2.3 mph 2.3 mph 59% 0 in WeatherDisplay:10.37 W/m2 CLR
14:52 68.4 °F 53.4 °F 29.9 in Calm     59% 0 in WeatherDisplay:10.37 W/m2 CLR
14:57 68.5 °F 54.1 °F 29.9 in East 1.2 mph   60% 0 in WeatherDisplay:10.37 W/m2 CLR
15:02 68.5 °F 53.8 °F 29.9 in WNW 3.5 mph 3.5 mph 59% 0 in WeatherDisplay:10.37 W/m2 CLR
15:07 68.4 °F 53.1 °F 29.9 in ENE 5.8 mph 5.8 mph 58% 0 in WeatherDisplay:10.37 W/m2 CLR
15:12 68.2 °F 52.9 °F 29.9 in SE 1.2 mph 1.2 mph 58% 0 in WeatherDisplay:10.37 W/m2 CLR
15:17 68.4 °F 52.5 °F 29.9 in East 3 mph 3 mph 57% 0 in WeatherDisplay:10.37 W/m2 CLR
15:22 68.2 °F 52.9 °F 29.9 in East 1.2 mph   58% 0 in WeatherDisplay:10.37 W/m2 CLR
15:27 68.4 °F 52.9 °F 29.9 in SW 2.3 mph 2.3 mph 58% 0 in WeatherDisplay:10.37 W/m2 CLR
15:32 68.4 °F 53.4 °F 29.9 in Calm     59% 0 in WeatherDisplay:10.37 W/m2 CLR
15:37 68.2 °F 53.2 °F 29.9 in ESE 1.2 mph   59% 0 in WeatherDisplay:10.37 W/m2 CLR
15:42 67.8 °F 52.5 °F 29.9 in ESE 1.2 mph 1.2 mph 58% 0 in WeatherDisplay:10.37 W/m2 CLR
15:48 67.8 °F 52.9 °F 29.9 in NW 3 mph 3 mph 59% 0 in WeatherDisplay:10.37 W/m2 CLR
15:53 67.6 °F 52.9 °F 29.9 in South 2.3 mph 2.3 mph 59% 0 in WeatherDisplay:10.37 W/m2 CLR
15:58 67.5 °F 53.1 °F 29.9 in Calm     60% 0 in WeatherDisplay:10.37 W/m2 CLR
16:03 67.3 °F 52.9 °F 29.9 in Calm   0.1 mph 60% 0 in WeatherDisplay:10.37 W/m2 CLR
16:08 67.3 °F 52.5 °F 29.9 in East 1.2 mph 1.5 mph 59% 0 in WeatherDisplay:10.37 W/m2 CLR
16:13 66.9 °F 53.1 °F 29.9 in Calm     61% 0 in WeatherDisplay:10.37 W/m2 CLR
16:18 66.7 °F 52.3 °F 29.9 in East 3.5 mph 3.5 mph 60% 0 in WeatherDisplay:10.37 W/m2 CLR
16:23 66.6 °F 52.2 °F 29.9 in East 2.3 mph 2.3 mph 60% 0 in WeatherDisplay:10.37 W/m2 CLR
16:28 66.4 °F 52.3 °F 29.9 in East 2.3 mph 2.3 mph 61% 0 in WeatherDisplay:10.37 W/m2 CLR
16:33 66 °F 52.7 °F 29.9 in WNW 1.2 mph 1.2 mph 62% 0 in WeatherDisplay:10.37 W/m2 CLR
16:38 65.8 °F 52.5 °F 29.9 in SSW 2.3 mph 2.3 mph 62% 0 in WeatherDisplay:10.37 W/m2 CLR
16:43 65.8 °F 52.5 °F 29.9 in South 1.2 mph 1.2 mph 62% 0 in WeatherDisplay:10.37 W/m2 CLR
16:48 65.8 °F 52.5 °F 29.9 in WNW 3.5 mph   62% 0 in WeatherDisplay:10.37 W/m2 CLR
16:53 65.8 °F 52.5 °F 29.9 in SSE 3.5 mph 3.5 mph 62% 0 in WeatherDisplay:10.37 W/m2 CLR
16:58 65.8 °F 52.5 °F 29.9 in SSW 1.2 mph   62% 0 in WeatherDisplay:10.37 W/m2 CLR
17:03 65.8 °F 52.3 °F 29.9 in Calm     62% 0 in WeatherDisplay:10.37 W/m2 CLR
17:08 65.8 °F 52.9 °F 29.9 in Calm     63% 0 in WeatherDisplay:10.37 W/m2 CLR
17:13 65.8 °F 52.9 °F 29.9 in Calm     63% 0 in WeatherDisplay:10.37 W/m2 CLR
17:18 65.7 °F 53.2 °F 29.9 in Calm     64% 0 in WeatherDisplay:10.37 W/m2 CLR
17:23 65.7 °F 53.2 °F 29.9 in ENE 1.2 mph   64% 0 in WeatherDisplay:10.37 W/m2 CLR
17:28 65.7 °F 53.4 °F 29.9 in Calm     65% 0 in WeatherDisplay:10.37 W/m2 CLR
17:33 65.5 °F 53.1 °F 29.9 in Calm     64% 0 in WeatherDisplay:10.37 W/m2 CLR
17:38 65.5 °F 52.9 °F 29.9 in ENE 1.2 mph   64% 0 in WeatherDisplay:10.37 W/m2 CLR
17:43 65.3 °F 53.2 °F 29.9 in Calm     65% 0 in WeatherDisplay:10.37 W/m2 CLR
17:48 65.1 °F 52.7 °F 29.9 in East 1.2 mph 1.2 mph 64% 0 in WeatherDisplay:10.37 W/m2 CLR
17:54 65.1 °F 53.4 °F 29.9 in Calm     66% 0 in WeatherDisplay:10.37 W/m2 CLR
17:59 64.9 °F 53.2 °F 29.9 in East 1.2 mph 1.2 mph 66% 0 in WeatherDisplay:10.37 W/m2 CLR
18:04 64.8 °F 53.2 °F 29.9 in East 1.2 mph   66% 0 in WeatherDisplay:10.37 W/m2 CLR
18:09 64.8 °F 53.4 °F 29.9 in Calm     67% 0 in WeatherDisplay:10.37 W/m2 CLR
18:14 64.6 °F 53.8 °F 29.9 in Calm     68% 0 in WeatherDisplay:10.37 W/m2 CLR
18:19 64.2 °F 53.4 °F 29.9 in Calm     68% 0 in WeatherDisplay:10.37 W/m2 CLR
18:24 64.2 °F 53.1 °F 29.9 in Calm     67% 0 in WeatherDisplay:10.37 W/m2 CLR
18:29 64 °F 53.2 °F 29.9 in Calm     68% 0 in WeatherDisplay:10.37 W/m2 CLR
18:34 64 °F 53.6 °F 29.9 in Calm     69% 0 in WeatherDisplay:10.37 W/m2 CLR
18:39 63.9 °F 53.4 °F 29.9 in Calm     69% 0 in WeatherDisplay:10.37 W/m2 CLR
18:44 63.7 °F 53.2 °F 29.9 in Calm     69% 0 in WeatherDisplay:10.37 W/m2 CLR
18:50 63.3 °F 53.1 °F 29.9 in Calm     69% 0 in WeatherDisplay:10.37 W/m2 CLR
18:55 63.1 °F 53.2 °F 29.9 in Calm     70% 0 in WeatherDisplay:10.37 W/m2 CLR
19:00 63 °F 53.1 °F 29.9 in Calm     70% 0 in WeatherDisplay:10.37 W/m2 CLR
19:05 62.6 °F 53.1 °F 29.9 in Calm     71% 0 in WeatherDisplay:10.37 W/m2 CLR
19:10 62.2 °F 52.9 °F 29.9 in Calm     71% 0 in WeatherDisplay:10.37 W/m2 CLR
19:15 62.1 °F 52.5 °F 29.9 in Calm     71% 0 in WeatherDisplay:10.37 W/m2 CLR
19:20 61.9 °F 52.5 °F 29.9 in Calm     72% 0 in WeatherDisplay:10.37 W/m2 CLR
19:25 61.3 °F 52.3 °F 29.9 in Calm     72% 0 in WeatherDisplay:10.37 W/m2 CLR
19:30 61.2 °F 52.3 °F 29.9 in Calm     73% 0 in WeatherDisplay:10.37 W/m2 CLR
19:35 60.6 °F 52 °F 29.9 in Calm     73% 0 in WeatherDisplay:10.37 W/m2 CLR
19:40 60.4 °F 52.2 °F 29.9 in Calm     74% 0 in WeatherDisplay:10.37 W/m2 CLR
19:45 59.9 °F 51.6 °F 29.9 in Calm     74% 0 in WeatherDisplay:10.37 W/m2 CLR
19:50 59.9 °F 51.6 °F 29.9 in Calm     74% 0 in WeatherDisplay:10.37 W/m2 CLR
19:55 59.9 °F 52.3 °F 29.9 in Calm     76% 0 in WeatherDisplay:10.37 W/m2 CLR
20:00 59.5 °F 51.6 °F 29.9 in Calm   0.1 mph 75% 0 in WeatherDisplay:10.37 W/m2 CLR
20:05 59.4 °F 51.4 °F 29.9 in Calm     75% 0 in WeatherDisplay:10.37 W/m2 CLR
20:10 59.4 °F 51.4 °F 29.9 in Calm     75% 0 in WeatherDisplay:10.37 W/m2 CLR
20:17 59.2 °F 51.4 °F 29.9 in Calm     76% 0 in WeatherDisplay:10.37 W/m2 CLR
20:19 59 °F 51.4 °F 29.9 in Calm     76% 0 in WeatherDisplay:10.37 W/m2 CLR
20:22 58.8 °F 51.6 °F 29.9 in Calm     77% 0 in WeatherDisplay:10.37 W/m2 CLR
20:23 58.8 °F 51.6 °F 29.9 in Calm     77% 0 in WeatherDisplay:10.37 W/m2 CLR
20:25 58.8 °F 51.6 °F 29.9 in Calm     77% 0 in WeatherDisplay:10.37 W/m2 CLR
20:28 58.6 °F 51.4 °F 29.9 in Calm     77% 0 in WeatherDisplay:10.37 W/m2 CLR
20:30 58.6 °F 51.8 °F 29.9 in Calm     78% 0 in WeatherDisplay:10.37 W/m2 CLR
20:34 58.5 °F 51.6 °F 29.9 in Calm     78% 0 in WeatherDisplay:10.37 W/m2 CLR
20:35 58.5 °F 51.6 °F 29.9 in Calm     78% 0 in WeatherDisplay:10.37 W/m2 CLR
20:40 58.3 °F 51.4 °F 29.9 in Calm     78% 0 in WeatherDisplay:10.37 W/m2 CLR
20:45 58.3 °F 51.4 °F 29.9 in Calm     78% 0 in WeatherDisplay:10.37 W/m2 CLR
20:50 58.1 °F 51.6 °F 29.9 in Calm     79% 0 in WeatherDisplay:10.37 W/m2 CLR
20:55 58.1 °F 51.6 °F 29.9 in Calm     79% 0 in WeatherDisplay:10.37 W/m2 CLR
21:00 57.9 °F 51.4 °F 29.9 in Calm     79% 0 in WeatherDisplay:10.37 W/m2 CLR
21:05 57.9 °F 51.4 °F 29.9 in Calm     79% 0 in WeatherDisplay:10.37 W/m2 CLR
21:10 57.9 °F 51.4 °F 29.9 in Calm     79% 0 in WeatherDisplay:10.37 W/m2 CLR
21:15 57.9 °F 51.4 °F 29.9 in Calm     79% 0 in WeatherDisplay:10.37 W/m2 CLR
21:20 57.7 °F 51.3 °F 29.9 in Calm     79% 0 in WeatherDisplay:10.37 W/m2 CLR
21:25 57.7 °F 51.3 °F 29.9 in Calm     79% 0 in WeatherDisplay:10.37 W/m2 CLR
21:30 57.7 °F 51.3 °F 29.9 in Calm     79% 0 in WeatherDisplay:10.37 W/m2 CLR
21:35 57.7 °F 51.3 °F 29.9 in Calm     79% 0 in WeatherDisplay:10.37 W/m2 CLR
21:40 57.7 °F 51.3 °F 29.9 in Calm     79% 0 in WeatherDisplay:10.37 W/m2 CLR
21:45 57.9 °F 51.4 °F 29.9 in Calm     79% 0 in WeatherDisplay:10.37 W/m2 CLR
21:50 57.9 °F 51.4 °F 29.9 in Calm     79% 0 in WeatherDisplay:10.37 W/m2 CLR
21:55 57.9 °F 52 °F 29.9 in Calm     80% 0 in WeatherDisplay:10.37 W/m2 CLR
22:00 57.9 °F 52 °F 29.9 in Calm     80% 0 in WeatherDisplay:10.37 W/m2 CLR
22:05 57.9 °F 51.4 °F 29.9 in Calm     79% 0 in WeatherDisplay:10.37 W/m2 CLR
22:10 57.9 °F 51.4 °F 29.9 in Calm     79% 0 in WeatherDisplay:10.37 W/m2 CLR
22:15 58.1 °F 51.6 °F 29.9 in Calm     79% 0 in WeatherDisplay:10.37 W/m2 CLR
22:20 58.3 °F 51.6 °F 29.9 in Calm     79% 0 in WeatherDisplay:10.37 W/m2 CLR
22:25 58.3 °F 51.6 °F 29.9 in Calm     79% 0 in WeatherDisplay:10.37 W/m2 CLR
22:30 58.5 °F 52 °F 29.9 in Calm     79% 0 in WeatherDisplay:10.37 W/m2 CLR
22:35 58.5 °F 52.3 °F 29.9 in Calm     80% 0 in WeatherDisplay:10.37 W/m2 CLR
22:40 58.5 °F 52.3 °F 29.9 in Calm     80% 0 in WeatherDisplay:10.37 W/m2 CLR
22:45 58.5 °F 52.3 °F 29.9 in Calm     80% 0 in WeatherDisplay:10.37 W/m2 CLR
22:50 58.5 °F 52 °F 29.9 in Calm     79% 0 in WeatherDisplay:10.37 W/m2 CLR
22:55 58.5 °F 52.3 °F 29.9 in Calm     80% 0 in WeatherDisplay:10.37 W/m2 CLR
23:01 58.5 °F 52 °F 29.9 in Calm     79% 0 in WeatherDisplay:10.37 W/m2 CLR
23:06 58.6 °F 52.2 °F 29.9 in Calm     79% 0 in WeatherDisplay:10.37 W/m2 CLR
23:11 58.6 °F 52 °F 29.9 in Calm     78% 0 in WeatherDisplay:10.37 W/m2 CLR
23:16 58.8 °F 52 °F 29.9 in Calm     78% 0 in WeatherDisplay:10.37 W/m2 CLR
23:21 58.8 °F 51.6 °F 29.9 in Calm     77% 0 in WeatherDisplay:10.37 W/m2 CLR
23:26 59 °F 51.8 °F 29.9 in Calm     77% 0 in WeatherDisplay:10.37 W/m2 CLR
23:31 59 °F 51.4 °F 29.9 in Calm     76% 0 in WeatherDisplay:10.37 W/m2 CLR
23:36 59 °F 51.8 °F 29.9 in Calm     77% 0 in WeatherDisplay:10.37 W/m2 CLR
23:41 59 °F 52.2 °F 29.9 in Calm     78% 0 in WeatherDisplay:10.37 W/m2 CLR
23:46 58.8 °F 52 °F 29.9 in Calm     78% 0 in WeatherDisplay:10.37 W/m2 CLR
23:51 58.5 °F 52 °F 29.9 in Calm     79% 0 in WeatherDisplay:10.37 W/m2 CLR
23:56 57.9 °F 51.4 °F 29.9 in Calm     79% 0 in WeatherDisplay:10.37 W/m2 CLR
Indianola, WA, USA
Compliments of Weather Underground - 2.75 mb